Time,TemperatureF,DewpointF,PressureIn,WindDirection,WindDirectionDegrees,WindSpeedMPH,WindSpeedGustMPH,Humidity,HourlyPrecipIn,Conditions,Clouds,dailyrainin,SolarRadiationWatts/m^2,SoftwareType,DateUTC
2013-08-08 00:00:00,81.3,74.5,29.99,SE,128,0.0,1.0,80,0.00,,CLR,0.00,0.00,VWS V14.01,2013-08-08 04:00:00,
2013-08-08 00:01:00,81.3,74.5,29.99,SE,128,1.0,1.0,80,0.00,,CLR,0.00,0.00,VWS V14.01,2013-08-08 04:01:00,
2013-08-08 00:06:00,81.4,75.0,29.99,SE,128,0.0,0.0,81,0.00,,CLR,0.00,0.00,VWS V14.01,2013-08-08 04:06:00,
2013-08-08 00:11:00,81.4,75.4,29.99,ESE,123,0.0,0.0,82,0.00,,CLR,0.00,0.00,VWS V14.01,2013-08-08 04:11:00,
2013-08-08 00:16:00,81.4,75.4,29.99,North,360,2.0,3.0,82,0.00,,CLR,0.00,0.00,VWS V14.01,2013-08-08 04:16:00,
2013-08-08 00:21:00,81.5,75.5,29.99,ENE,68,0.0,2.0,82,0.00,,CLR,0.00,0.00,VWS V14.01,2013-08-08 04:21:00,
2013-08-08 00:26:00,81.5,75.5,29.98,ENE,69,0.0,0.0,82,0.00,,CLR,0.00,0.00,VWS V14.01,2013-08-08 04:26:00,
2013-08-08 00:31:00,81.5,75.5,29.98,East,95,0.0,2.0,82,0.00,,CLR,0.00,0.00,VWS V14.01,2013-08-08 04:31:00,
2013-08-08 00:36:00,81.5,75.5,29.98,East,84,0.0,2.0,82,0.00,,CLR,0.00,0.00,VWS V14.01,2013-08-08 04:36:00,
2013-08-08 00:41:00,81.5,75.5,29.98,ESE,114,0.0,1.0,82,0.00,,CLR,0.00,0.00,VWS V14.01,2013-08-08 04:41:00,
2013-08-08 00:46:00,81.5,75.5,29.98,East,85,0.0,2.0,82,0.00,,CLR,0.00,0.00,VWS V14.01,2013-08-08 04:46:00,
2013-08-08 00:51:00,81.5,75.5,29.98,SE,128,0.0,4.0,82,0.00,,CLR,0.00,0.00,VWS V14.01,2013-08-08 04:51:00,
2013-08-08 00:56:00,81.5,75.5,29.98,SE,132,0.0,3.0,82,0.00,,CLR,0.00,0.00,VWS V14.01,2013-08-08 04:56:00,
2013-08-08 01:01:00,81.5,75.5,29.98,ESE,117,0.0,3.0,82,0.00,,CLR,0.00,0.00,VWS V14.01,2013-08-08 05:01:00,
2013-08-08 01:06:00,81.5,75.5,29.98,East,96,2.0,4.0,82,0.00,,CLR,0.00,0.00,VWS V14.01,2013-08-08 05:06:00,
2013-08-08 01:11:00,81.5,75.1,29.97,ESE,120,1.0,5.0,81,0.00,,CLR,0.00,0.00,VWS V14.01,2013-08-08 05:11:00,
2013-08-08 01:16:00,81.5,75.1,29.97,SE,134,1.0,3.0,81,0.00,,CLR,0.00,0.00,VWS V14.01,2013-08-08 05:16:00,
2013-08-08 01:21:00,81.5,74.7,29.97,SE,138,1.0,6.0,80,0.00,,CLR,0.00,0.00,VWS V14.01,2013-08-08 05:21:00,
2013-08-08 01:26:00,81.6,74.8,29.97,SE,131,6.0,6.0,80,0.00,,CLR,0.00,0.00,VWS V14.01,2013-08-08 05:26:00,
2013-08-08 01:31:00,81.7,74.9,29.97,ESE,122,1.0,5.0,80,0.00,,CLR,0.00,0.00,VWS V14.01,2013-08-08 05:31:00,
2013-08-08 01:36:00,81.7,74.9,29.97,SSE,153,0.0,4.0,80,0.00,,CLR,0.00,0.00,VWS V14.01,2013-08-08 05:36:00,
2013-08-08 01:41:00,81.7,74.9,29.96,SE,132,3.0,3.0,80,0.00,,CLR,0.00,0.00,VWS V14.01,2013-08-08 05:41:00,
2013-08-08 01:46:00,81.7,74.9,29.96,SSE,147,0.0,3.0,80,0.00,,CLR,0.00,0.00,VWS V14.01,2013-08-08 05:46:00,
2013-08-08 01:51:00,81.6,74.8,29.96,SE,128,2.0,5.0,80,0.00,,CLR,0.00,0.00,VWS V14.01,2013-08-08 05:51:00,
2013-08-08 01:56:00,81.6,74.8,29.96,SE,133,2.0,3.0,80,0.00,,CLR,0.00,0.00,VWS V14.01,2013-08-08 05:56:00,
2013-08-08 02:01:00,81.6,74.8,29.96,ESE,123,0.0,0.0,80,0.00,,CLR,0.00,0.00,VWS V14.01,2013-08-08 06:01:00,
2013-08-08 02:06:00,81.6,74.8,29.96,SE,130,3.0,4.0,80,0.00,,CLR,0.00,0.00,VWS V14.01,2013-08-08 06:06:00,
2013-08-08 02:11:00,81.6,75.2,29.95,SE,132,6.0,6.0,81,0.00,,CLR,0.00,0.00,VWS V14.01,2013-08-08 06:11:00,
2013-08-08 02:16:00,81.6,75.2,29.95,SE,139,0.0,4.0,81,0.00,,CLR,0.00,0.00,VWS V14.01,2013-08-08 06:16:00,
2013-08-08 02:21:00,81.6,75.2,29.95,SSE,158,5.0,9.0,81,0.00,,CLR,0.00,0.00,VWS V14.01,2013-08-08 06:21:00,
2013-08-08 02:26:00,81.7,75.3,29.95,East,96,1.0,7.0,81,0.00,,CLR,0.00,0.00,VWS V14.01,2013-08-08 06:26:00,
2013-08-08 02:31:00,81.7,74.9,29.95,SE,130,1.0,6.0,80,0.00,,CLR,0.00,0.00,VWS V14.01,2013-08-08 06:31:00,
2013-08-08 02:36:00,81.8,75.0,29.95,SE,128,3.0,5.0,80,0.00,,CLR,0.00,0.00,VWS V14.01,2013-08-08 06:36:00,
2013-08-08 02:41:00,81.8,75.0,29.95,SE,135,2.0,4.0,80,0.00,,CLR,0.00,0.00,VWS V14.01,2013-08-08 06:41:00,
2013-08-08 02:46:00,81.8,75.0,29.95,ESE,117,0.0,5.0,80,0.00,,CLR,0.00,0.00,VWS V14.01,2013-08-08 06:46:00,
2013-08-08 02:51:00,81.8,75.0,29.95,SE,127,1.0,6.0,80,0.00,,CLR,0.00,0.00,VWS V14.01,2013-08-08 06:51:00,
2013-08-08 02:57:00,81.8,74.7,29.94,SE,134,0.0,3.0,79,0.00,,CLR,0.00,0.00,VWS V14.01,2013-08-08 06:57:00,
2013-08-08 03:02:00,81.8,75.0,29.94,SSE,168,3.0,7.0,80,0.00,,CLR,0.00,0.00,VWS V14.01,2013-08-08 07:02:00,
2013-08-08 03:07:00,81.8,75.0,29.94,East,84,1.0,2.0,80,0.00,,CLR,0.00,0.00,VWS V14.01,2013-08-08 07:07:00,
2013-08-08 03:12:00,81.8,75.0,29.94,SE,140,2.0,3.0,80,0.00,,CLR,0.00,0.00,VWS V14.01,2013-08-08 07:12:00,
2013-08-08 03:17:00,81.8,75.0,29.94,SSE,151,0.0,6.0,80,0.00,,CLR,0.00,0.00,VWS V14.01,2013-08-08 07:17:00,
2013-08-08 03:22:00,81.7,74.9,29.93,ENE,65,1.0,9.0,80,0.00,,CLR,0.00,0.00,VWS V14.01,2013-08-08 07:22:00,
2013-08-08 03:27:00,81.8,75.0,29.93,ESE,115,2.0,4.0,80,0.00,,CLR,0.00,0.00,VWS V14.01,2013-08-08 07:27:00,
2013-08-08 03:32:00,81.8,75.0,29.93,SSE,151,2.0,6.0,80,0.00,,CLR,0.00,0.00,VWS V14.01,2013-08-08 07:32:00,
2013-08-08 03:37:00,81.8,75.0,29.93,East,90,1.0,7.0,80,0.00,,CLR,0.00,0.00,VWS V14.01,2013-08-08 07:37:00,
2013-08-08 03:42:00,81.8,75.4,29.93,East,93,3.0,6.0,81,0.00,,CLR,0.00,0.00,VWS V14.01,2013-08-08 07:42:00,
2013-08-08 03:47:00,81.8,75.4,29.93,ESE,118,1.0,4.0,81,0.00,,CLR,0.00,0.00,VWS V14.01,2013-08-08 07:47:00,
2013-08-08 03:52:00,81.8,75.4,29.93,SE,128,3.0,4.0,81,0.00,,CLR,0.00,0.00,VWS V14.01,2013-08-08 07:52:00,
2013-08-08 03:57:00,81.6,75.2,29.93,SE,128,1.0,2.0,81,0.00,,CLR,0.00,0.00,VWS V14.01,2013-08-08 07:57:00,
2013-08-08 04:02:00,81.5,75.1,29.93,SE,128,1.0,4.0,81,0.00,,CLR,0.00,0.00,VWS V14.01,2013-08-08 08:02:00,
2013-08-08 04:07:00,81.4,75.0,29.93,East,91,2.0,5.0,81,0.00,,CLR,0.00,0.00,VWS V14.01,2013-08-08 08:07:00,
2013-08-08 04:12:00,81.3,74.9,29.93,East,83,0.0,3.0,81,0.00,,CLR,0.00,0.00,VWS V14.01,2013-08-08 08:12:00,
2013-08-08 04:17:00,81.2,74.8,29.93,East,96,1.0,3.0,81,0.00,,CLR,0.00,0.00,VWS V14.01,2013-08-08 08:17:00,
2013-08-08 04:22:00,81.1,74.7,29.93,East,95,0.0,2.0,81,0.00,,CLR,0.00,0.00,VWS V14.01,2013-08-08 08:22:00,
2013-08-08 04:26:00,81.1,74.7,29.93,SE,130,0.0,5.0,81,0.00,,CLR,0.00,0.00,VWS V14.01,2013-08-08 08:26:00,
2013-08-08 04:31:00,81.1,75.1,29.93,SE,140,1.0,4.0,82,0.00,,CLR,0.00,0.00,VWS V14.01,2013-08-08 08:31:00,
2013-08-08 04:37:00,81.2,75.2,29.93,NE,47,0.0,3.0,82,0.00,,CLR,0.00,0.00,VWS V14.01,2013-08-08 08:37:00,
2013-08-08 04:42:00,81.3,75.3,29.93,North,360,1.0,3.0,82,0.00,,CLR,0.00,0.00,VWS V14.01,2013-08-08 08:42:00,
2013-08-08 04:47:00,81.4,75.0,29.93,ESE,117,0.0,5.0,81,0.00,,CLR,0.00,0.00,VWS V14.01,2013-08-08 08:47:00,
2013-08-08 04:52:00,81.4,75.0,29.93,ESE,121,1.0,2.0,81,0.00,,CLR,0.00,0.00,VWS V14.01,2013-08-08 08:52:00,
2013-08-08 04:57:00,81.4,75.0,29.93,East,92,1.0,2.0,81,0.00,,CLR,0.00,0.00,VWS V14.01,2013-08-08 08:57:00,
2013-08-08 05:02:00,81.5,75.1,29.93,East,88,1.0,4.0,81,0.00,,CLR,0.00,0.00,VWS V14.01,2013-08-08 09:02:00,
2013-08-08 05:06:00,81.5,75.1,29.93,SE,131,6.0,7.0,81,0.00,,CLR,0.00,0.00,VWS V14.01,2013-08-08 09:06:00,
2013-08-08 05:11:00,81.6,74.8,29.93,South,169,1.0,5.0,80,0.00,,CLR,0.00,0.00,VWS V14.01,2013-08-08 09:11:00,
2013-08-08 05:16:00,81.7,74.9,29.94,ESE,119,4.0,6.0,80,0.00,,CLR,0.00,0.00,VWS V14.01,2013-08-08 09:16:00,
2013-08-08 05:22:00,81.7,74.9,29.93,SE,143,2.0,4.0,80,0.00,,CLR,0.00,0.00,VWS V14.01,2013-08-08 09:22:00,
2013-08-08 05:27:00,81.7,74.6,29.94,SE,140,1.0,8.0,79,0.00,,CLR,0.00,0.00,VWS V14.01,2013-08-08 09:27:00,
2013-08-08 05:31:00,81.7,74.6,29.94,North,360,1.0,3.0,79,0.00,,CLR,0.00,0.00,VWS V14.01,2013-08-08 09:31:00,
2013-08-08 05:36:00,81.6,74.5,29.94,ESE,111,1.0,5.0,79,0.00,,SCT038,0.00,0.00,VWS V14.01,2013-08-08 09:36:00,
2013-08-08 05:41:00,81.5,74.4,29.94,ENE,69,2.0,2.0,79,0.00,,SCT038,0.00,0.00,VWS V14.01,2013-08-08 09:41:00,
2013-08-08 05:46:00,81.4,74.3,29.94,East,93,3.0,6.0,79,0.00,,SCT038,0.00,0.00,VWS V14.01,2013-08-08 09:46:00,
2013-08-08 05:51:00,81.3,74.2,29.94,SE,134,2.0,5.0,79,0.00,,SCT038,0.00,0.00,VWS V14.01,2013-08-08 09:51:00,
2013-08-08 05:56:00,81.3,74.2,29.94,SE,132,0.0,3.0,79,0.00,,SCT038,0.00,0.00,VWS V14.01,2013-08-08 09:56:00,
2013-08-08 06:01:00,81.3,74.2,29.95,East,90,0.0,2.0,79,0.00,,SCT038,0.00,0.00,VWS V14.01,2013-08-08 10:01:00,
2013-08-08 06:06:00,81.2,74.1,29.94,SE,132,0.0,3.0,79,0.00,,SCT038,0.00,0.00,VWS V14.01,2013-08-08 10:06:00,
2013-08-08 06:11:00,81.2,74.4,29.95,South,183,1.0,3.0,80,0.00,,SCT038,0.00,0.00,VWS V14.01,2013-08-08 10:11:00,
2013-08-08 06:16:00,81.2,74.4,29.95,ESE,114,2.0,8.0,80,0.00,,SCT038,0.00,0.00,VWS V14.01,2013-08-08 10:16:00,
2013-08-08 06:21:00,81.1,74.0,29.95,SE,128,3.0,6.0,79,0.00,,SCT038,0.00,0.00,VWS V14.01,2013-08-08 10:21:00,
2013-08-08 06:26:00,81.1,74.0,29.95,ESE,119,2.0,7.0,79,0.00,,SCT038,0.00,0.00,VWS V14.01,2013-08-08 10:26:00,
2013-08-08 06:31:00,81.2,73.7,29.95,SE,132,3.0,3.0,78,0.00,,SCT038,0.00,0.00,VWS V14.01,2013-08-08 10:31:00,
2013-08-08 06:36:00,81.1,73.6,29.95,SE,140,2.0,2.0,78,0.00,,CLR,0.00,0.00,VWS V14.01,2013-08-08 10:36:00,
2013-08-08 06:41:00,81.1,73.6,29.95,SSE,156,0.0,1.0,78,0.00,,CLR,0.00,0.00,VWS V14.01,2013-08-08 10:41:00,
2013-08-08 06:46:00,81.0,73.9,29.96,SSE,155,3.0,4.0,79,0.00,,CLR,0.00,0.00,VWS V14.01,2013-08-08 10:46:00,
2013-08-08 06:51:00,81.0,73.9,29.96,SE,134,1.0,3.0,79,0.00,,CLR,0.00,0.00,VWS V14.01,2013-08-08 10:51:00,
2013-08-08 06:56:00,81.0,73.9,29.96,SE,130,4.0,6.0,79,0.00,,CLR,0.00,7.00,VWS V14.01,2013-08-08 10:56:00,
2013-08-08 07:01:00,81.1,74.3,29.96,SE,134,1.0,5.0,80,0.00,,CLR,0.00,9.00,VWS V14.01,2013-08-08 11:01:00,
2013-08-08 07:06:00,81.2,74.4,29.96,East,93,3.0,6.0,80,0.00,,CLR,0.00,11.00,VWS V14.01,2013-08-08 11:06:00,
2013-08-08 07:11:00,81.3,74.5,29.96,ESE,117,0.0,6.0,80,0.00,,CLR,0.00,16.00,VWS V14.01,2013-08-08 11:11:00,
2013-08-08 07:16:00,81.3,74.5,29.96,SE,132,0.0,2.0,80,0.00,,CLR,0.00,19.00,VWS V14.01,2013-08-08 11:16:00,
2013-08-08 07:21:00,81.4,74.6,29.96,SE,140,3.0,4.0,80,0.00,,CLR,0.00,26.00,VWS V14.01,2013-08-08 11:21:00,
2013-08-08 07:26:00,81.5,75.1,29.96,SSE,150,2.0,4.0,81,0.00,,CLR,0.00,23.00,VWS V14.01,2013-08-08 11:26:00,
2013-08-08 07:31:00,81.6,74.8,29.96,SE,128,3.0,3.0,80,0.00,,CLR,0.00,25.00,VWS V14.01,2013-08-08 11:31:00,
2013-08-08 07:36:00,81.7,74.9,29.96,East,86,2.0,6.0,80,0.00,,CLR,0.00,26.00,VWS V14.01,2013-08-08 11:36:00,
2013-08-08 07:41:00,81.8,74.7,29.96,ESE,115,3.0,8.0,79,0.00,,CLR,0.00,28.00,VWS V14.01,2013-08-08 11:41:00,
2013-08-08 07:46:00,82.1,74.9,29.96,North,360,2.0,4.0,79,0.00,,CLR,0.00,30.00,VWS V14.01,2013-08-08 11:46:00,
2013-08-08 07:51:00,82.2,74.7,29.96,SE,124,3.0,8.0,78,0.00,,CLR,0.00,23.00,VWS V14.01,2013-08-08 11:51:00,
2013-08-08 07:56:00,82.2,74.7,29.97,SE,139,2.0,4.0,78,0.00,,CLR,0.00,21.00,VWS V14.01,2013-08-08 11:56:00,
2013-08-08 08:01:00,82.1,74.9,29.97,SE,132,1.0,4.0,79,0.00,,CLR,0.00,69.00,VWS V14.01,2013-08-08 12:01:00,
2013-08-08 08:06:00,82.0,74.8,29.97,SSE,160,3.0,8.0,79,0.00,,CLR,0.00,46.00,VWS V14.01,2013-08-08 12:06:00,
2013-08-08 08:11:00,82.2,75.0,29.97,ESE,123,1.0,3.0,79,0.00,,CLR,0.00,63.00,VWS V14.01,2013-08-08 12:11:00,
2013-08-08 08:16:00,82.6,75.4,29.97,SSE,151,2.0,4.0,79,0.00,,CLR,0.00,54.00,VWS V14.01,2013-08-08 12:16:00,
2013-08-08 08:21:00,83.2,75.6,29.97,SSE,150,6.0,6.0,78,0.00,,CLR,0.00,158.00,VWS V14.01,2013-08-08 12:21:00,
2013-08-08 08:26:00,83.7,76.1,29.97,South,175,3.0,7.0,78,0.00,,CLR,0.00,72.00,VWS V14.01,2013-08-08 12:26:00,
2013-08-08 08:31:00,84.1,76.1,29.96,SSE,161,7.0,10.0,77,0.00,,CLR,0.00,51.00,VWS V14.01,2013-08-08 12:31:00,
2013-08-08 08:36:00,84.2,75.4,29.96,SSE,155,4.0,10.0,75,0.00,,CLR,0.00,60.00,VWS V14.01,2013-08-08 12:36:00,
2013-08-08 08:41:00,84.4,76.0,29.97,SE,141,7.0,9.0,76,0.00,,CLR,0.00,111.00,VWS V14.01,2013-08-08 12:41:00,
2013-08-08 08:46:00,84.7,76.3,29.97,SE,134,8.0,11.0,76,0.00,,CLR,0.00,118.00,VWS V14.01,2013-08-08 12:46:00,
2013-08-08 08:51:00,85.0,76.2,29.97,ESE,115,3.0,9.0,75,0.00,,CLR,0.00,104.00,VWS V14.01,2013-08-08 12:51:00,
2013-08-08 08:56:00,85.2,76.0,29.97,North,360,9.0,10.0,74,0.00,,CLR,0.00,207.00,VWS V14.01,2013-08-08 12:56:00,
2013-08-08 09:01:00,85.6,76.4,29.98,East,84,1.0,7.0,74,0.00,,CLR,0.00,403.00,VWS V14.01,2013-08-08 13:01:00,
2013-08-08 09:06:00,85.7,76.1,29.98,SE,132,4.0,7.0,73,0.00,,CLR,0.00,420.00,VWS V14.01,2013-08-08 13:06:00,
2013-08-08 09:11:00,85.9,76.2,29.98,ESE,117,3.0,9.0,73,0.00,,CLR,0.00,434.00,VWS V14.01,2013-08-08 13:11:00,
2013-08-08 09:16:00,86.2,76.1,29.98,SE,133,3.0,6.0,72,0.00,,CLR,0.00,515.00,VWS V14.01,2013-08-08 13:16:00,
2013-08-08 09:21:00,86.7,76.6,29.98,SSE,159,8.0,9.0,72,0.00,,CLR,0.00,524.00,VWS V14.01,2013-08-08 13:21:00,
2013-08-08 09:26:00,86.3,75.8,29.98,SSE,162,6.0,11.0,71,0.00,,CLR,0.00,79.00,VWS V14.01,2013-08-08 13:26:00,
2013-08-08 09:31:00,85.9,76.2,29.98,SE,132,5.0,16.0,73,0.00,,CLR,0.00,613.00,VWS V14.01,2013-08-08 13:31:00,
2013-08-08 09:36:00,86.3,76.6,29.97,SSE,154,8.0,12.0,73,0.00,,FEW028,0.00,589.00,VWS V14.01,2013-08-08 13:36:00,
2013-08-08 09:41:00,86.8,76.7,29.97,East,88,5.0,13.0,72,0.00,,FEW028,0.00,606.00,VWS V14.01,2013-08-08 13:41:00,
2013-08-08 09:46:00,86.7,76.6,29.98,SE,140,6.0,12.0,72,0.00,,FEW028,0.00,633.00,VWS V14.01,2013-08-08 13:46:00,
2013-08-08 09:51:00,87.1,77.0,29.98,SSE,157,5.0,14.0,72,0.00,,FEW028,0.00,744.00,VWS V14.01,2013-08-08 13:51:00,
2013-08-08 09:56:00,87.2,76.7,29.98,SE,140,6.0,15.0,71,0.00,,FEW028,0.00,714.00,VWS V14.01,2013-08-08 13:56:00,
2013-08-08 10:01:00,86.8,76.3,29.98,SE,146,3.0,11.0,71,0.00,,FEW028,0.00,202.00,VWS V14.01,2013-08-08 14:01:00,
2013-08-08 10:06:00,86.3,75.8,29.98,SW,225,7.0,14.0,71,0.00,,FEW028,0.00,146.00,VWS V14.01,2013-08-08 14:06:00,
2013-08-08 10:11:00,85.8,76.2,29.98,South,178,7.0,9.0,73,0.00,,FEW028,0.00,220.00,VWS V14.01,2013-08-08 14:11:00,
2013-08-08 10:16:00,85.7,76.5,29.98,NE,41,5.0,9.0,74,0.00,,FEW028,0.00,281.00,VWS V14.01,2013-08-08 14:16:00,
2013-08-08 10:21:00,86.0,75.9,29.98,East,91,3.0,10.0,72,0.00,,FEW028,0.00,127.00,VWS V14.01,2013-08-08 14:21:00,
2013-08-08 10:26:00,85.7,75.2,29.99,SE,128,8.0,11.0,71,0.00,,FEW028,0.00,195.00,VWS V14.01,2013-08-08 14:26:00,
2013-08-08 10:31:00,85.7,75.2,29.99,SE,132,4.0,16.0,71,0.00,,FEW028,0.00,195.00,VWS V14.01,2013-08-08 14:31:00,
2013-08-08 10:36:00,86.3,75.8,29.99,SSE,151,6.0,12.0,71,0.00,,BKN050,0.00,754.00,VWS V14.01,2013-08-08 14:36:00,
2013-08-08 10:41:00,86.6,75.7,29.99,SSE,158,7.0,15.0,70,0.00,,BKN050,0.00,754.00,VWS V14.01,2013-08-08 14:41:00,
2013-08-08 10:46:00,87.6,76.2,29.99,East,86,5.0,15.0,69,0.00,,BKN050,0.00,793.00,VWS V14.01,2013-08-08 14:46:00,
2013-08-08 10:51:00,88.3,76.8,29.99,SSE,163,5.0,10.0,69,0.00,,BKN050,0.00,735.00,VWS V14.01,2013-08-08 14:51:00,
2013-08-08 10:56:00,88.5,76.6,29.99,SE,141,7.0,7.0,68,0.00,,BKN050,0.00,169.00,VWS V14.01,2013-08-08 14:56:00,
2013-08-08 11:01:00,87.7,76.3,30.00,East,92,6.0,12.0,69,0.00,,BKN050,0.00,218.00,VWS V14.01,2013-08-08 15:01:00,
2013-08-08 11:06:00,85.8,75.3,30.00,SSE,158,5.0,8.0,71,0.00,,BKN050,0.00,232.00,VWS V14.01,2013-08-08 15:06:00,
2013-08-08 11:11:00,85.5,78.2,30.00,SE,134,4.0,10.0,79,0.01,,BKN050,0.01,900.00,VWS V14.01,2013-08-08 15:11:00,
2013-08-08 11:16:00,86.4,77.5,30.00,SE,134,4.0,9.0,75,0.01,,BKN050,0.01,928.00,VWS V14.01,2013-08-08 15:16:00,
2013-08-08 11:21:00,87.1,77.0,30.00,ENE,74,5.0,10.0,72,0.01,,BKN050,0.01,888.00,VWS V14.01,2013-08-08 15:21:00,
2013-08-08 11:26:00,87.4,77.3,30.00,ESE,116,7.0,11.0,72,0.01,,BKN050,0.01,946.00,VWS V14.01,2013-08-08 15:26:00,
2013-08-08 11:31:00,87.8,75.0,30.00,South,188,7.0,11.0,66,0.01,,BKN050,0.01,939.00,VWS V14.01,2013-08-08 15:31:00,
2013-08-08 11:36:00,88.0,74.3,30.00,North,360,11.0,12.0,64,0.01,,SCT040,0.01,888.00,VWS V14.01,2013-08-08 15:36:00,
2013-08-08 11:41:00,88.7,75.4,30.00,SE,140,3.0,11.0,65,0.01,,SCT040,0.01,882.00,VWS V14.01,2013-08-08 15:41:00,
2013-08-08 11:46:00,89.1,75.3,30.00,ESE,115,5.0,10.0,64,0.01,,SCT040,0.01,884.00,VWS V14.01,2013-08-08 15:46:00,
2013-08-08 11:51:00,89.3,75.5,30.00,ESE,123,7.0,9.0,64,0.01,,SCT040,0.01,856.00,VWS V14.01,2013-08-08 15:51:00,
2013-08-08 11:56:00,89.3,75.5,30.00,ESE,111,4.0,13.0,64,0.01,,SCT040,0.01,244.00,VWS V14.01,2013-08-08 15:56:00,
2013-08-08 12:01:00,89.3,75.5,30.00,SE,145,5.0,14.0,64,0.01,,SCT040,0.01,1013.00,VWS V14.01,2013-08-08 16:01:00,
2013-08-08 12:06:00,89.7,76.8,30.00,SE,128,4.0,11.0,66,0.01,,SCT040,0.01,1030.00,VWS V14.01,2013-08-08 16:06:00,
2013-08-08 12:11:00,90.1,74.8,30.01,ESE,116,2.0,12.0,61,0.00,,SCT040,0.01,1025.00,VWS V14.01,2013-08-08 16:11:00,
2013-08-08 12:16:00,90.5,77.1,30.01,NE,46,4.0,7.0,65,0.00,,SCT040,0.01,974.00,VWS V14.01,2013-08-08 16:16:00,
2013-08-08 12:21:00,90.8,76.5,30.01,SSE,150,4.0,8.0,63,0.00,,SCT040,0.01,1030.00,VWS V14.01,2013-08-08 16:21:00,
2013-08-08 12:26:00,90.8,76.0,30.01,ESE,122,13.0,13.0,62,0.00,,SCT040,0.01,1111.00,VWS V14.01,2013-08-08 16:26:00,
2013-08-08 12:31:00,90.6,75.8,30.01,East,88,6.0,10.0,62,0.00,,SCT040,0.01,292.00,VWS V14.01,2013-08-08 16:31:00,
2013-08-08 12:36:00,90.2,75.9,30.01,ENE,71,8.0,9.0,63,0.00,,FEW034,0.01,722.00,VWS V14.01,2013-08-08 16:36:00,
2013-08-08 12:41:00,89.9,75.6,30.01,SSE,154,5.0,12.0,63,0.00,,FEW034,0.01,264.00,VWS V14.01,2013-08-08 16:41:00,
2013-08-08 12:46:00,89.5,75.2,30.01,SSE,153,5.0,11.0,63,0.00,,FEW034,0.01,276.00,VWS V14.01,2013-08-08 16:46:00,
2013-08-08 12:51:00,89.4,75.6,30.01,ESE,119,8.0,16.0,64,0.00,,FEW034,0.01,1121.00,VWS V14.01,2013-08-08 16:51:00,
2013-08-08 12:56:00,89.8,75.1,30.01,SE,131,6.0,11.0,62,0.00,,FEW034,0.01,1065.00,VWS V14.01,2013-08-08 16:56:00,
2013-08-08 13:01:00,90.3,75.5,30.00,East,96,5.0,12.0,62,0.00,,FEW034,0.01,1130.00,VWS V14.01,2013-08-08 17:01:00,
2013-08-08 13:06:00,90.6,76.8,30.00,SE,134,15.0,15.0,64,0.00,,FEW034,0.01,1174.00,VWS V14.01,2013-08-08 17:06:00,
2013-08-08 13:11:00,90.9,77.5,30.00,NNE,32,3.0,8.0,65,0.00,,FEW034,0.01,262.00,VWS V14.01,2013-08-08 17:11:00,
2013-08-08 13:16:00,90.0,76.7,30.00,NE,43,3.0,8.0,65,0.00,,FEW034,0.01,227.00,VWS V14.01,2013-08-08 17:16:00,
2013-08-08 13:21:00,88.8,76.4,30.00,NE,53,2.0,9.0,67,0.00,,FEW034,0.01,225.00,VWS V14.01,2013-08-08 17:21:00,
2013-08-08 13:26:00,88.9,76.1,30.00,South,171,9.0,12.0,66,0.00,,FEW034,0.01,1125.00,VWS V14.01,2013-08-08 17:26:00,
2013-08-08 13:31:00,89.9,77.5,30.00,North,360,4.0,7.0,67,0.00,,FEW034,0.01,1060.00,VWS V14.01,2013-08-08 17:31:00,
2013-08-08 13:36:00,90.4,76.6,30.00,NE,43,5.0,7.0,64,0.00,,SCT055,0.01,1004.00,VWS V14.01,2013-08-08 17:36:00,
2013-08-08 13:41:00,90.6,75.3,30.00,SSE,165,4.0,10.0,61,0.00,,SCT055,0.01,1000.00,VWS V14.01,2013-08-08 17:41:00,
2013-08-08 13:46:00,90.8,76.5,30.00,North,360,5.0,10.0,63,0.00,,SCT055,0.01,1011.00,VWS V14.01,2013-08-08 17:46:00,
2013-08-08 13:51:00,90.7,76.8,30.00,ESE,109,8.0,9.0,64,0.00,,SCT055,0.01,1106.00,VWS V14.01,2013-08-08 17:51:00,
2013-08-08 13:56:00,90.7,75.9,29.99,ESE,110,2.0,13.0,62,0.00,,SCT055,0.01,1129.00,VWS V14.01,2013-08-08 17:56:00,
2013-08-08 14:01:00,90.7,76.4,29.99,South,169,10.0,10.0,63,0.00,,SCT055,0.01,1048.00,VWS V14.01,2013-08-08 18:01:00,
2013-08-08 14:06:00,91.4,75.1,30.00,ESE,121,7.0,14.0,59,0.00,,SCT055,0.01,1062.00,VWS V14.01,2013-08-08 18:06:00,
2013-08-08 14:11:00,91.0,74.7,29.99,SSE,165,7.0,12.0,59,0.00,,SCT055,0.01,1067.00,VWS V14.01,2013-08-08 18:11:00,
2013-08-08 14:16:00,91.1,74.3,29.99,ENE,72,7.0,11.0,58,0.00,,SCT055,0.01,1078.00,VWS V14.01,2013-08-08 18:16:00,
2013-08-08 14:21:00,90.9,75.6,29.99,ESE,109,4.0,10.0,61,0.00,,SCT055,0.01,995.00,VWS V14.01,2013-08-08 18:21:00,
2013-08-08 14:26:00,91.1,75.3,29.99,ENE,67,5.0,7.0,60,0.00,,SCT055,0.01,1044.00,VWS V14.01,2013-08-08 18:26:00,
2013-08-08 14:31:00,90.6,75.8,29.98,East,84,5.0,9.0,62,0.00,,SCT055,0.01,1065.00,VWS V14.01,2013-08-08 18:31:00,
2013-08-08 14:36:00,90.4,75.1,29.98,ESE,115,5.0,8.0,61,0.00,,FEW036,0.01,1055.00,VWS V14.01,2013-08-08 18:36:00,
2013-08-08 14:41:00,90.4,76.6,29.98,East,86,5.0,13.0,64,0.00,,FEW036,0.01,1102.00,VWS V14.01,2013-08-08 18:41:00,
2013-08-08 14:46:00,89.8,76.9,29.98,East,91,3.0,11.0,66,0.00,,FEW036,0.01,265.00,VWS V14.01,2013-08-08 18:46:00,
2013-08-08 14:51:00,90.0,77.6,29.98,East,91,0.0,8.0,67,0.00,,FEW036,0.01,981.00,VWS V14.01,2013-08-08 18:51:00,
2013-08-08 14:56:00,90.4,76.6,29.98,SSE,149,4.0,10.0,64,0.00,,FEW036,0.01,1035.00,VWS V14.01,2013-08-08 18:56:00,
2013-08-08 15:01:00,89.7,75.4,29.98,North,360,6.0,10.0,63,0.00,,FEW036,0.01,940.00,VWS V14.01,2013-08-08 19:01:00,
2013-08-08 15:06:00,89.9,75.1,29.98,ENE,69,5.0,6.0,62,0.00,,FEW036,0.01,912.00,VWS V14.01,2013-08-08 19:06:00,
2013-08-08 15:11:00,90.4,71.5,29.98,East,90,0.0,10.0,54,0.00,,FEW036,0.01,895.00,VWS V14.01,2013-08-08 19:11:00,
2013-08-08 15:16:00,90.4,71.5,29.97,NE,51,5.0,13.0,54,0.00,,FEW036,0.01,884.00,VWS V14.01,2013-08-08 19:16:00,
2013-08-08 15:21:00,90.7,74.4,29.97,NE,51,5.0,12.0,59,0.00,,FEW036,0.01,874.00,VWS V14.01,2013-08-08 19:21:00,
2013-08-08 15:26:00,90.8,74.0,29.97,NE,46,4.0,9.0,58,0.00,,FEW036,0.01,863.00,VWS V14.01,2013-08-08 19:26:00,
2013-08-08 15:31:00,91.0,74.2,29.97,SE,133,5.0,11.0,58,0.00,,FEW036,0.01,856.00,VWS V14.01,2013-08-08 19:31:00,
2013-08-08 15:36:00,90.8,75.0,29.97,SE,134,7.0,7.0,60,0.00,,SCT034,0.01,842.00,VWS V14.01,2013-08-08 19:36:00,
2013-08-08 15:41:00,90.6,72.8,29.97,NE,42,5.0,10.0,56,0.00,,SCT034,0.01,835.00,VWS V14.01,2013-08-08 19:41:00,
2013-08-08 15:46:00,90.4,73.1,29.97,East,90,3.0,8.0,57,0.00,,SCT034,0.01,826.00,VWS V14.01,2013-08-08 19:46:00,
2013-08-08 15:51:00,90.8,73.5,29.97,SSE,151,4.0,10.0,57,0.00,,SCT034,0.01,816.00,VWS V14.01,2013-08-08 19:51:00,
2013-08-08 15:57:00,90.7,72.3,29.97,SE,132,7.0,12.0,55,0.00,,SCT034,0.01,809.00,VWS V14.01,2013-08-08 19:57:00,
2013-08-08 16:02:00,90.6,72.8,29.97,SE,124,9.0,9.0,56,0.00,,SCT034,0.01,793.00,VWS V14.01,2013-08-08 20:02:00,
2013-08-08 16:07:00,90.3,73.0,29.97,ESE,119,5.0,9.0,57,0.00,,SCT034,0.01,814.00,VWS V14.01,2013-08-08 20:07:00,
2013-08-08 16:12:00,90.3,73.0,29.97,SE,130,4.0,9.0,57,0.00,,SCT034,0.01,770.00,VWS V14.01,2013-08-08 20:12:00,
2013-08-08 16:17:00,90.4,74.1,29.97,ENE,74,3.0,7.0,59,0.00,,SCT034,0.01,784.00,VWS V14.01,2013-08-08 20:17:00,
2013-08-08 16:22:00,90.7,72.3,29.97,East,92,5.0,11.0,55,0.00,,SCT034,0.01,754.00,VWS V14.01,2013-08-08 20:22:00,
2013-08-08 16:27:00,90.7,73.9,29.97,ESE,109,4.0,7.0,58,0.00,,SCT034,0.01,759.00,VWS V14.01,2013-08-08 20:27:00,
2013-08-08 16:32:00,90.5,73.2,29.97,SSE,153,5.0,13.0,57,0.00,,SCT034,0.01,830.00,VWS V14.01,2013-08-08 20:32:00,
2013-08-08 16:37:00,89.9,74.2,29.97,SSE,159,7.0,9.0,60,0.00,,CLR,0.01,884.00,VWS V14.01,2013-08-08 20:37:00,
2013-08-08 16:42:00,90.0,75.2,29.97,East,87,6.0,12.0,62,0.00,,CLR,0.01,791.00,VWS V14.01,2013-08-08 20:42:00,
2013-08-08 16:47:00,90.0,73.2,29.97,ENE,67,12.0,14.0,58,0.00,,CLR,0.01,800.00,VWS V14.01,2013-08-08 20:47:00,
2013-08-08 16:52:00,89.4,74.7,29.97,SE,132,9.0,9.0,62,0.00,,CLR,0.01,696.00,VWS V14.01,2013-08-08 20:52:00,
2013-08-08 16:57:00,89.3,75.1,29.97,East,88,3.0,11.0,63,0.00,,CLR,0.01,141.00,VWS V14.01,2013-08-08 20:57:00,
2013-08-08 17:02:00,89.4,75.2,29.97,SE,130,5.0,13.0,63,0.00,,CLR,0.01,687.00,VWS V14.01,2013-08-08 21:02:00,
2013-08-08 17:07:00,89.3,75.5,29.98,SSE,150,4.0,8.0,64,0.00,,CLR,0.01,258.00,VWS V14.01,2013-08-08 21:07:00,
2013-08-08 17:12:00,88.8,74.1,29.97,East,82,5.0,10.0,62,0.00,,CLR,0.01,142.00,VWS V14.01,2013-08-08 21:12:00,
2013-08-08 17:17:00,88.1,73.9,29.97,ESE,123,2.0,12.0,63,0.00,,CLR,0.01,633.00,VWS V14.01,2013-08-08 21:17:00,
2013-08-08 17:23:00,88.3,74.6,29.97,East,90,5.0,10.0,64,0.00,,CLR,0.01,622.00,VWS V14.01,2013-08-08 21:23:00,
2013-08-08 17:28:00,88.7,75.0,29.97,SSE,161,6.0,12.0,64,0.00,,CLR,0.01,592.00,VWS V14.01,2013-08-08 21:28:00,
2013-08-08 17:33:00,88.3,74.1,29.97,ENE,72,4.0,7.0,63,0.00,,CLR,0.01,118.00,VWS V14.01,2013-08-08 21:33:00,
2013-08-08 17:38:00,88.0,74.8,29.96,East,84,2.0,12.0,65,0.00,,SCT036,0.01,570.00,VWS V14.01,2013-08-08 21:38:00,
2013-08-08 17:43:00,88.3,73.6,29.96,NE,51,2.0,8.0,62,0.00,,SCT036,0.01,584.00,VWS V14.01,2013-08-08 21:43:00,
2013-08-08 17:48:00,88.8,75.1,29.96,East,95,3.0,10.0,64,0.00,,SCT036,0.01,596.00,VWS V14.01,2013-08-08 21:48:00,
2013-08-08 17:53:00,89.2,76.4,29.96,East,86,8.0,8.0,66,0.00,,SCT036,0.01,492.00,VWS V14.01,2013-08-08 21:53:00,
2013-08-08 17:58:00,88.7,75.4,29.96,East,92,1.0,10.0,65,0.00,,SCT036,0.01,169.00,VWS V14.01,2013-08-08 21:58:00,
2013-08-08 18:03:00,87.8,75.0,29.96,SE,137,4.0,10.0,66,0.00,,SCT036,0.01,158.00,VWS V14.01,2013-08-08 22:03:00,
2013-08-08 18:08:00,87.5,76.1,29.97,SE,140,3.0,10.0,69,0.00,,SCT036,0.01,91.00,VWS V14.01,2013-08-08 22:08:00,
2013-08-08 18:13:00,86.9,75.9,29.97,NE,40,4.0,10.0,70,0.00,,SCT036,0.01,510.00,VWS V14.01,2013-08-08 22:13:00,
2013-08-08 18:18:00,87.0,76.9,29.97,ENE,69,5.0,13.0,72,0.00,,SCT036,0.01,76.00,VWS V14.01,2013-08-08 22:18:00,
2013-08-08 18:23:00,86.5,76.4,29.97,NE,42,6.0,10.0,72,0.00,,SCT036,0.01,49.00,VWS V14.01,2013-08-08 22:23:00,
2013-08-08 18:28:00,85.8,75.7,29.97,ENE,67,5.0,9.0,72,0.00,,SCT036,0.01,42.00,VWS V14.01,2013-08-08 22:28:00,
2013-08-08 18:33:00,85.2,74.7,29.97,ENE,70,9.0,9.0,71,0.00,,SCT036,0.01,40.00,VWS V14.01,2013-08-08 22:33:00,
2013-08-08 18:38:00,84.8,73.5,29.97,SE,141,2.0,12.0,69,0.00,,FEW032,0.01,44.00,VWS V14.01,2013-08-08 22:38:00,
2013-08-08 18:44:00,85.1,73.8,29.97,NE,35,4.0,9.0,69,0.00,,FEW032,0.01,257.00,VWS V14.01,2013-08-08 22:44:00,
2013-08-08 18:49:00,85.4,75.3,29.97,East,86,5.0,11.0,72,0.00,,FEW032,0.01,53.00,VWS V14.01,2013-08-08 22:49:00,
2013-08-08 18:54:00,85.2,75.2,29.97,East,92,7.0,10.0,72,0.00,,FEW032,0.01,253.00,VWS V14.01,2013-08-08 22:54:00,
2013-08-08 18:59:00,85.1,74.6,29.98,ESE,116,7.0,14.0,71,0.00,,FEW032,0.01,156.00,VWS V14.01,2013-08-08 22:59:00,
2013-08-08 19:04:00,85.0,74.1,29.97,ENE,63,4.0,12.0,70,0.00,,FEW032,0.01,221.00,VWS V14.01,2013-08-08 23:04:00,
2013-08-08 19:09:00,84.5,73.7,29.96,NNE,28,5.0,9.0,70,0.00,,FEW032,0.01,165.00,VWS V14.01,2013-08-08 23:09:00,
2013-08-08 19:14:00,84.2,72.5,29.95,ENE,72,7.0,8.0,68,0.00,,FEW032,0.01,139.00,VWS V14.01,2013-08-08 23:14:00,
2013-08-08 19:19:00,83.9,70.9,29.95,ESE,105,4.0,8.0,65,0.00,,FEW032,0.01,109.00,VWS V14.01,2013-08-08 23:19:00,
2013-08-08 19:24:00,83.5,70.5,29.96,ENE,63,3.0,12.0,65,0.00,,FEW032,0.01,88.00,VWS V14.01,2013-08-08 23:24:00,
2013-08-08 19:29:00,82.9,70.4,29.96,ENE,63,7.0,8.0,66,0.00,,FEW032,0.01,70.00,VWS V14.01,2013-08-08 23:29:00,
2013-08-08 19:34:00,82.5,70.4,29.96,SSE,157,4.0,7.0,67,0.00,,FEW032,0.01,53.00,VWS V14.01,2013-08-08 23:34:00,
2013-08-08 19:39:00,82.2,70.2,29.96,SE,128,1.0,5.0,67,0.00,,CLR,0.01,19.00,VWS V14.01,2013-08-08 23:39:00,
2013-08-08 19:44:00,82.1,70.1,29.97,NE,48,4.0,7.0,67,0.00,,CLR,0.01,18.00,VWS V14.01,2013-08-08 23:44:00,
2013-08-08 19:49:00,82.1,70.1,29.97,East,94,1.0,6.0,67,0.00,,CLR,0.01,11.00,VWS V14.01,2013-08-08 23:49:00,
2013-08-08 19:54:00,82.1,70.1,29.97,ESE,121,0.0,5.0,67,0.00,,CLR,0.01,7.00,VWS V14.01,2013-08-08 23:54:00,
2013-08-08 19:59:00,82.1,70.5,29.97,SSE,166,3.0,7.0,68,0.00,,CLR,0.01,0.00,VWS V14.01,2013-08-08 23:59:00,
2013-08-08 20:04:00,82.0,70.8,29.98,SSE,152,2.0,4.0,69,0.00,,CLR,0.01,0.00,VWS V14.01,2013-08-09 00:04:00,
2013-08-08 20:09:00,82.0,71.3,29.98,North,360,2.0,6.0,70,0.00,,CLR,0.01,0.00,VWS V14.01,2013-08-09 00:09:00,
2013-08-08 20:15:00,81.9,72.0,29.98,SE,134,3.0,8.0,72,0.00,,CLR,0.01,0.00,VWS V14.01,2013-08-09 00:15:00,
2013-08-08 20:20:00,81.8,72.3,29.99,ESE,117,0.0,5.0,73,0.00,,CLR,0.01,0.00,VWS V14.01,2013-08-09 00:20:00,
2013-08-08 20:25:00,81.6,71.7,29.98,SSE,157,1.0,4.0,72,0.00,,CLR,0.01,0.00,VWS V14.01,2013-08-09 00:25:00,
2013-08-08 20:30:00,81.4,71.5,29.98,SE,128,1.0,3.0,72,0.00,,CLR,0.01,0.00,VWS V14.01,2013-08-09 00:30:00,
2013-08-08 20:35:00,81.3,71.4,29.98,SSE,152,4.0,5.0,72,0.00,,CLR,0.01,0.00,VWS V14.01,2013-08-09 00:35:00,
2013-08-08 20:40:00,81.3,71.8,29.99,SE,131,0.0,1.0,73,0.00,,CLR,0.01,0.00,VWS V14.01,2013-08-09 00:40:00,
2013-08-08 20:45:00,81.2,72.1,29.99,ESE,110,0.0,0.0,74,0.00,,CLR,0.01,0.00,VWS V14.01,2013-08-09 00:45:00,
2013-08-08 20:50:00,81.1,72.4,29.99,East,87,0.0,1.0,75,0.00,,CLR,0.01,0.00,VWS V14.01,2013-08-09 00:50:00,
2013-08-08 20:55:00,81.1,72.8,29.99,ESE,115,0.0,1.0,76,0.00,,CLR,0.01,0.00,VWS V14.01,2013-08-09 00:55:00,
2013-08-08 21:00:00,80.9,72.6,29.99,North,360,0.0,3.0,76,0.00,,CLR,0.01,0.00,VWS V14.01,2013-08-09 01:00:00,
2013-08-08 21:05:00,80.9,73.0,29.99,SE,133,0.0,1.0,77,0.00,,CLR,0.01,0.00,VWS V14.01,2013-08-09 01:05:00,
2013-08-08 21:11:00,80.8,72.9,30.00,SE,132,0.0,1.0,77,0.00,,CLR,0.01,0.00,VWS V14.01,2013-08-09 01:11:00,
2013-08-08 21:16:00,80.8,73.3,30.00,SE,133,0.0,0.0,78,0.00,,CLR,0.01,0.00,VWS V14.01,2013-08-09 01:16:00,
2013-08-08 21:21:00,80.8,73.3,30.00,SE,132,0.0,1.0,78,0.00,,CLR,0.01,0.00,VWS V14.01,2013-08-09 01:21:00,
2013-08-08 21:26:00,80.8,73.7,30.01,SE,132,0.0,2.0,79,0.00,,CLR,0.01,0.00,VWS V14.01,2013-08-09 01:26:00,
2013-08-08 21:31:00,80.9,73.8,30.01,SE,132,0.0,1.0,79,0.00,,CLR,0.01,0.00,VWS V14.01,2013-08-09 01:31:00,
2013-08-08 21:36:00,80.9,73.8,30.01,SE,132,0.0,0.0,79,0.00,,CLR,0.01,0.00,VWS V14.01,2013-08-09 01:36:00,
2013-08-08 21:41:00,80.9,73.8,30.01,ENE,66,2.0,2.0,79,0.00,,CLR,0.01,0.00,VWS V14.01,2013-08-09 01:41:00,
2013-08-08 21:46:00,80.9,73.8,30.01,ENE,69,0.0,1.0,79,0.00,,CLR,0.01,0.00,VWS V14.01,2013-08-09 01:46:00,
2013-08-08 21:51:00,80.9,73.8,30.01,East,92,2.0,2.0,79,0.00,,CLR,0.01,0.00,VWS V14.01,2013-08-09 01:51:00,
2013-08-08 21:57:00,80.9,73.8,30.01,East,92,0.0,1.0,79,0.00,,CLR,0.01,0.00,VWS V14.01,2013-08-09 01:57:00,
2013-08-08 22:02:00,80.8,73.7,30.02,East,92,0.0,0.0,79,0.00,,CLR,0.01,0.00,VWS V14.01,2013-08-09 02:02:00,
2013-08-08 22:07:00,80.8,73.7,30.02,East,92,0.0,0.0,79,0.00,,CLR,0.01,0.00,VWS V14.01,2013-08-09 02:07:00,
2013-08-08 22:12:00,80.9,73.8,30.02,East,92,0.0,0.0,79,0.00,,CLR,0.01,0.00,VWS V14.01,2013-08-09 02:12:00,
2013-08-08 22:17:00,80.8,73.7,30.02,East,92,1.0,1.0,79,0.00,,CLR,0.01,0.00,VWS V14.01,2013-08-09 02:17:00,
2013-08-08 22:22:00,80.7,73.6,30.03,East,92,0.0,2.0,79,0.00,,CLR,0.01,0.00,VWS V14.01,2013-08-09 02:22:00,
2013-08-08 22:27:00,80.7,74.0,30.03,ESE,107,1.0,2.0,80,0.00,,CLR,0.01,0.00,VWS V14.01,2013-08-09 02:27:00,
2013-08-08 22:32:00,80.7,74.0,30.03,ESE,107,0.0,0.0,80,0.00,,CLR,0.01,0.00,VWS V14.01,2013-08-09 02:32:00,
2013-08-08 22:37:00,80.8,74.1,30.03,SE,126,0.0,0.0,80,0.00,,CLR,0.01,0.00,VWS V14.01,2013-08-09 02:37:00,
2013-08-08 22:42:00,80.9,74.2,30.02,SE,126,0.0,0.0,80,0.00,,CLR,0.01,0.00,VWS V14.01,2013-08-09 02:42:00,
2013-08-08 22:47:00,81.0,74.6,30.02,SE,126,0.0,1.0,81,0.00,,CLR,0.01,0.00,VWS V14.01,2013-08-09 02:47:00,
2013-08-08 22:52:00,81.0,74.6,30.02,SE,130,1.0,2.0,81,0.00,,CLR,0.01,0.00,VWS V14.01,2013-08-09 02:52:00,
2013-08-08 22:57:00,81.1,74.7,30.02,SE,130,0.0,1.0,81,0.00,,CLR,0.01,0.00,VWS V14.01,2013-08-09 02:57:00,
2013-08-08 23:02:00,81.1,74.3,30.02,SE,130,0.0,0.0,80,0.00,,CLR,0.01,0.00,VWS V14.01,2013-08-09 03:02:00,
2013-08-08 23:08:00,81.0,74.6,30.02,SE,130,0.0,0.0,81,0.00,,CLR,0.01,0.00,VWS V14.01,2013-08-09 03:08:00,
2013-08-08 23:13:00,80.9,74.5,30.02,SE,130,0.0,0.0,81,0.00,,CLR,0.01,0.00,VWS V14.01,2013-08-09 03:13:00,
2013-08-08 23:18:00,80.9,74.5,30.02,ENE,76,1.0,5.0,81,0.00,,CLR,0.01,0.00,VWS V14.01,2013-08-09 03:18:00,
2013-08-08 23:23:00,81.1,74.3,30.02,East,88,2.0,3.0,80,0.00,,CLR,0.01,0.00,VWS V14.01,2013-08-09 03:23:00,
2013-08-08 23:28:00,81.4,74.3,30.02,ENE,63,3.0,3.0,79,0.00,,CLR,0.01,0.00,VWS V14.01,2013-08-09 03:28:00,
2013-08-08 23:33:00,81.6,74.5,30.01,ENE,63,1.0,9.0,79,0.00,,CLR,0.01,0.00,VWS V14.01,2013-08-09 03:33:00,
2013-08-08 23:38:00,81.8,74.7,30.01,NE,36,2.0,4.0,79,0.00,,FEW032,0.01,0.00,VWS V14.01,2013-08-09 03:38:00,
2013-08-08 23:43:00,81.9,74.8,30.01,East,94,3.0,6.0,79,0.00,,FEW032,0.01,0.00,VWS V14.01,2013-08-09 03:43:00,
2013-08-08 23:48:00,81.9,74.4,30.02,NE,52,4.0,7.0,78,0.00,,FEW032,0.01,0.00,VWS V14.01,2013-08-09 03:48:00,
2013-08-08 23:53:00,82.0,74.5,30.02,ESE,112,4.0,4.0,78,0.00,,FEW032,0.01,0.00,VWS V14.01,2013-08-09 03:53:00,
2013-08-08 23:59:00,82.1,74.6,30.02,ENE,69,2.0,7.0,78,0.00,,FEW032,0.01,0.00,VWS V14.01,2013-08-09 03:59:00,